EET,Max TemperatureF,Mean TemperatureF,Min TemperatureF,Max Dew PointF,MeanDew PointF,Min DewpointF,Max Humidity, Mean Humidity, Min Humidity, Max Sea Level PressureIn, Mean Sea Level PressureIn, Min Sea Level PressureIn, Max VisibilityMiles, Mean VisibilityMiles, Min VisibilityMiles, Max Wind SpeedMPH, Mean Wind SpeedMPH, Max Gust SpeedMPH,PrecipitationIn, CloudCover, Events, WindDirDegrees
2014-1-1,73,60,46,52,47,41,87,66,41,30.12,30.08,30.04,3,3,2,5,1,,0.00,,,131
2014-1-2,71,58,46,50,47,43,87,66,41,30.12,30.09,30.04,,,,5,2,,0.00,,,205
2014-1-3,71,60,48,50,46,43,82,68,38,30.12,30.07,30.04,4,4,4,2,0,,0.00,,,242
2014-1-4,71,60,48,52,48,45,87,67,41,30.06,30.02,29.98,4,3,2,8,3,,0.00,,,233
2014-1-5,69,60,51,54,50,45,88,71,43,30.09,30.03,29.98,4,3,2,12,3,,0.00,,,280
2014-1-6,72,59,46,52,46,41,87,64,41,30.12,30.07,30.04,6,6,6,7,2,,0.00,,,57
2014-1-7,74,60,47,54,49,45,82,65,37,30.09,30.01,29.95,6,6,6,5,1,,0.00,,,49
2014-1-8,75,62,50,54,48,44,82,60,35,30.01,29.97,29.92,6,6,4,5,2,,0.00,1,,233
2014-1-9,69,57,45,46,43,37,76,56,30,30.06,30.00,29.95,6,6,5,9,2,,0.00,3,,265
2014-1-10,68,57,46,48,46,41,87,64,38,30.19,30.10,30.04,6,6,6,7,4,,0.00,,,264
2014-1-11,70,57,44,50,46,41,87,68,43,30.27,30.21,30.18,6,6,6,6,2,,0.00,,,193
2014-1-12,71,58,44,52,46,39,87,64,46,30.30,30.22,30.15,4,4,4,5,1,,0.00,,,74
2014-1-13,72,58,44,54,46,39,81,64,50,30.21,30.10,30.04,4,4,4,8,1,,0.00,,,51
2014-1-14,77,60,44,52,46,39,81,58,28,30.07,30.00,29.94,6,5,2,2,0,,0.00,,,151
2014-1-15,78,61,44,48,43,37,71,51,27,30.09,30.04,30.01,6,4,1,4,1,,0.00,,,92
2014-1-16,80,62,44,59,49,36,77,57,31,30.09,30.01,29.94,6,5,4,5,1,,0.00,,,302
2014-1-17,80,64,47,54,45,39,77,47,16,30.09,30.03,29.98,6,6,6,6,1,,0.00,,,256
2014-1-18,77,62,47,48,39,32,58,43,23,30.18,30.12,30.06,6,5,4,4,1,,0.00,,,66
2014-1-19,78,61,44,52,43,34,67,52,36,30.23,30.15,30.09,6,5,4,4,1,,0.00,,,350
2014-1-20,78,63,48,54,46,37,66,45,26,30.16,30.09,30.04,6,6,6,6,1,,0.00,,,352
2014-1-21,79,62,46,50,41,28,94,43,21,30.12,30.05,30.00,6,6,5,4,1,,0.00,,,36
2014-1-22,82,64,46,50,40,33,66,43,21,30.07,30.02,29.95,6,5,4,4,1,,0.00,,,95
2014-1-23,79,62,45,50,39,32,62,40,20,30.06,30.02,29.98,6,5,2,8,1,,0.00,,,154
2014-1-24,81,64,48,46,39,32,51,33,17,30.08,29.99,29.94,6,5,4,4,1,,0.00,,,66
2014-1-25,82,64,46,46,39,31,58,39,14,30.01,29.91,29.83,6,5,5,4,0,,0.00,,,20
2014-1-26,85,68,52,57,44,30,53,41,26,29.85,29.77,29.68,6,5,4,6,1,,0.00,1,,259
2014-1-27,77,65,53,45,43,41,72,41,19,29.90,29.79,29.74,6,5,4,9,3,,0.00,,,263
2014-1-28,72,60,49,45,39,34,58,43,25,29.99,29.94,29.89,6,4,4,5,2,,0.00,,,263
2014-1-29,75,60,45,45,39,34,76,46,20,30.09,30.03,29.95,6,4,2,5,1,,0.00,,,100
2014-1-30,80,62,44,45,37,30,58,39,14,30.12,30.05,29.98,6,5,4,4,1,,0.00,,,72
2014-1-31,80,64,47,45,38,32,62,39,14,30.06,30.01,29.95,6,5,4,5,1,,0.00,,,87